Regional Weather Roundup
Issued by NWS Little Rock, AR

Home | Current Version | Previous Version | Text Only | Print | Product List | Glossary Off
Versions: 1 2 3 4 5 6 7 8 9 10 11 12 13 14 15 16 17 18 19 20 21 22 23 24 25 26 27 28 29 30 31 32 33 34 35 36 37 38 39 40 41 42 43 44 45 46 47 48 49 50

000
ASUS44 KLZK 011805
RWRLZK

WEATHER ROUNDUP FOR ARKANSAS
NATIONAL WEATHER SERVICE LITTLE ROCK AR
100 PM CDT FRI AUG 01 2014

NOTE: "FAIR" INDICATES FEW OR NO CLOUDS BELOW 12,000 FEET WITH NO
SIGNIFICANT WEATHER AND/OR OBSTRUCTIONS TO VISIBILITY.

ARZ001-003-010-029-011900-
NORTHWEST ARKANSAS

CITY           SKY/WX    TMP DP  RH WIND       PRES   REMARKS
FAYETTEVILLE   CLOUDY    74  63  68 E3        30.12S
6HR MIN TEMP:  65; 6HR MAX TEMP:  75;

FORT SMITH     CLOUDY    78  65  63 E5        30.08S
6HR MIN TEMP:  69; 6HR MAX TEMP:  78;

HARRISON       CLOUDY    74  64  71 E7        30.12F
6HR MIN TEMP:  64; 6HR MAX TEMP:  75;

BENTONVILLE    MOSUNNY   75  63  64 E3        30.13S
6HR MIN TEMP:  64; 6HR MAX TEMP:  75;

ROGERS         MOSUNNY   77  63  61 VRB3      30.13S
6HR MIN TEMP:  67; 6HR MAX TEMP:  77;

SILOAM SPGS    MOSUNNY   75  61  60 NE8       30.13S
6HR MIN TEMP:  64; 6HR MAX TEMP:  75;

HIGHFILL       MOSUNNY   77  62  59 CALM      30.12S
6HR MIN TEMP:  65; 6HR MAX TEMP:  78;

SPRINGDALE     PTSUNNY   77  64  65 NE12      30.13F
$$

ARZ004-005-016-011900-
NORTH CENTRAL ARKANSAS

CITY           SKY/WX    TMP DP  RH WIND       PRES   REMARKS
BATESVILLE     CLOUDY    79  66  65 E5        30.08F
6HR MIN TEMP:  66; 6HR MAX TEMP:  79;

FLIPPIN        CLOUDY    73  64  73 N3        30.11S
6HR MIN TEMP:  64; 6HR MAX TEMP:  73;

MTN HOME       CLOUDY    72  66  81 SE3       30.10F
6HR MIN TEMP:  63; 6HR MAX TEMP:  73;

$$

ARZ040-041-011900-
WEST CENTRAL ARKANSAS

CITY           SKY/WX    TMP DP  RH WIND       PRES   REMARKS
MENA           CLOUDY    72  68  88 E6        30.11R
MOUNT IDA      CLOUDY    73  66  78 CALM      30.07R
6HR MIN TEMP:  67; 6HR MAX TEMP:  73; 6HR PCP:  0.01;

$$

ARZ009-017-025-026-028-011900-
NORTHEAST ARKANSAS

CITY           SKY/WX    TMP DP  RH WIND       PRES   REMARKS
JONESBORO      MOSUNNY   80  65  59 E6        30.07F
6HR MIN TEMP:  70; 6HR MAX TEMP:  82;

NEWPORT        MOSUNNY   80  69  69 E7        30.09S
6HR MIN TEMP:  69; 6HR MAX TEMP:  80; 6HR PCP: TRACE;

WALNUT RIDGE   CLOUDY    79  52  38 NW5       30.08S
6HR MIN TEMP:  70; 6HR MAX TEMP:  79;

BLYTHEVILLE    PTSUNNY   82  66  58 NE6       30.07F
6HR MIN TEMP:  69; 6HR MAX TEMP:  83;

NW BLYTHEVILLE PTSUNNY   82  64  54 E7        30.06
$$

ARZ022-023-033-042-044-011900-
CENTRAL ARKANSAS

CITY           SKY/WX    TMP DP  RH WIND       PRES   REMARKS
LITTLE ROCK    PTSUNNY   80  67  64 E8        30.06F
6HR MIN TEMP:  70; 6HR MAX TEMP:  80;

N LITTLE ROCK  PTSUNNY   80  70  71 E6        30.06F
6HR MIN TEMP:  67; 6HR MAX TEMP:  80;

JACKSONVILLE   PTSUNNY   79  68  69 N8        30.06F
6HR MIN TEMP:  69; 6HR MAX TEMP:  79;

SEARCY         PTSUNNY   80  67  64 N7        30.07F
6HR MIN TEMP:  68; 6HR MAX TEMP:  80;

HOT SPRINGS    CLOUDY    74  65  73 E7        30.08S
6HR MIN TEMP:  68; 6HR MAX TEMP:  74;

RUSSELLVILLE   CLOUDY    78  63  59 CALM      30.07F
6HR MIN TEMP:  70; 6HR MAX TEMP:  79;

CLINTON        FAIR      79  66  65 CALM      30.09S
$$

ARZ036-011900-
EAST ARKANSAS

CITY           SKY/WX    TMP DP  RH WIND       PRES   REMARKS
WEST MEMPHIS   CLOUDY    83  66  56 NE5       30.04F HX  85
6HR MIN TEMP:  69; 6HR MAX TEMP:  84;

$$

ARZ050-053-066-070-073-011900-
SOUTHWEST ARKANSAS

CITY           SKY/WX    TMP DP  RH WIND       PRES   REMARKS
ARKADELPHIA    MOCLDY    72  70  93 NE6       30.07S
6HR MIN TEMP:  68; 6HR MAX TEMP:  72; 6HR PCP: TRACE;

CAMDEN         LGT RAIN  68  66  94 SE5       30.05S VSB 1
TEXARKANA      CLOUDY    71  68  90 NE6       30.05S
6HR MIN TEMP:  65; 6HR MAX TEMP:  71; 6HR PCP:  0.03;

EL DORADO      CLOUDY    68  67  96 N9        30.04S FOG
6HR MIN TEMP:  65; 6HR MAX TEMP:  68; 6HR PCP:  0.57;

DE QUEEN       CLOUDY    73  68  84 E5        30.06S
6HR MIN TEMP:  67; 6HR MAX TEMP:  73; 6HR PCP:  0.02;

$$

ARZ056-057-069-011900-
SOUTHEAST ARKANSAS

CITY           SKY/WX    TMP DP  RH WIND       PRES   REMARKS
PINE BLUFF     CLOUDY    74  67  78 SE7       30.06S
6HR MIN TEMP:  69; 6HR MAX TEMP:  75; 6HR PCP: TRACE;

STUTTGART      PTSUNNY   81  68  65 E9        30.06S
6HR MIN TEMP:  70; 6HR MAX TEMP:  81;

MONTICELLO     CLOUDY    73  67  81 NE7       30.04F
6HR MIN TEMP:  69; 6HR MAX TEMP:  73; 6HR PCP:  0.43;


$$





USA.gov is the U.S. government's official web portal to all federal, state and local government web resources and services.